Wind_Speed
53 51 50 49 50 49 48 47 47 48 47 48 51 52 52 53 56 57 53 49 48 47 44 43 46 48 51 52 52 52 52 50 49 49 48 49 53 53 52 52 51 50 50 47 43 44 51 57 58 55 46 39 38 38 34 34 35 32 31 34 32 30 33 36 33 28 29 31 33 34 36 39 41 40 38 36 31 31 35 34 31 29 28 29 29 27
51 49 49 50 48 47 45 44 44 44 44 45 46 49 53 56 57 56 53 50 48 46 44 44 44 46 51 54 52 51 51 52 50 47 47 49 51 51 50 51 50 49 49 48 46 45 51 59 63 62 56 51 49 45 38 35 29 22 24 28 32 32 30 31 34 35 35 34 30 30 32 35 37 38 36 35 31 31 35 35 33 31 27 26 26 28
49 49 50 49 46 44 43 41 41 41 40 40 41 46 51 53 52 53 54 51 48 46 45 43 41 43 49 52 51 50 50 52 50 47 46 46 47 49 50 49 48 47 48 48 47 46 49 56 63 65 62 59 53 44 35 30 25 26 29 27 28 31 30 32 34 35 37 37 31 27 27 29 31 33 34 34 31 32 36 35 34 32 29 29 30 31
49 50 49 47 44 41 40 39 39 38 37 36 38 43 46 47 48 51 52 49 46 44 42 40 38 39 45 48 49 50 50 52 53 50 46 44 44 48 51 48 45 46 46 46 45 46 48 52 58 61 61 57 50 40 32 30 32 33 33 29 31 36 35 34 35 36 37 36 32 26 23 25 27 28 31 32 32 35 37 37 37 35 33 33 35 34
50 50 47 44 41 39 38 37 37 37 37 36 37 39 40 42 44 46 47 45 42 39 38 38 36 38 45 47 47 50 51 53 56 54 49 45 43 47 51 49 45 44 44 43 42 44 47 49 51 54 57 55 50 43 38 38 40 39 38 38 39 40 38 37 39 41 40 37 34 30 24 24 26 27 29 32 35 38 38 37 37 37 35 33 34 34
50 48 44 42 40 38 37 36 36 36 37 37 37 38 38 39 41 42 43 42 39 38 39 40 39 41 46 48 49 51 53 53 56 57 54 48 43 45 49 48 45 43 41 39 39 41 43 44 43 45 51 53 51 50 46 44 45 44 46 49 45 42 44 45 44 42 40 37 36 34 29 26 28 30 32 37 39 39 38 36 35 35 35 34 33 33
49 46 44 42 40 38 37 36 36 37 37 36 38 40 40 41 42 43 44 43 42 42 44 43 43 43 45 47 50 51 53 53 54 55 56 52 44 42 44 44 43 41 37 35 36 37 37 36 37 40 45 49 50 51 49 46 47 47 48 51 49 45 46 48 46 41 38 37 37 37 34 31 31 33 35 41 43 41 40 37 35 33 34 37 37 36
49 46 43 41 40 38 37 37 37 37 36 36 38 40 41 42 43 43 43 44 44 45 45 45 45 44 43 45 48 49 51 52 52 52 55 54 46 39 38 39 40 39 35 32 31 31 30 30 36 40 43 46 49 51 50 48 48 49 47 47 48 47 45 45 44 41 40 40 38 39 38 37 36 36 38 43 46 46 44 41 38 36 36 40 41 40
48 46 44 42 40 37 37 39 38 36 36 37 39 39 39 41 41 41 42 44 44 43 42 44 46 44 41 41 44 47 49 50 51 51 51 52 46 39 34 34 37 36 30 25 21 22 25 29 37 43 44 46 47 49 51 50 49 49 48 46 46 46 45 45 43 43 44 44 42 42 43 43 43 43 42 44 48 49 47 44 41 39 39 42 44 45
48 46 45 42 39 37 38 40 38 37 37 40 40 38 38 38 38 39 41 43 41 37 39 44 47 44 40 39 42 46 48 48 49 49 48 48 45 39 33 32 33 27 19 14 13 17 23 28 38 46 48 47 46 47 51 51 49 48 48 47 46 44 44 44 45 47 48 47 47 46 46 47 47 47 46 46 48 50 49 46 44 42 41 43 45 47
48 47 45 42 39 38 40 41 40 39 39 40 41 40 39 38 37 39 40 40 37 35 40 46 47 45 41 40 42 45 47 48 47 46 45 44 41 36 31 28 25 19 16 18 17 18 28 33 39 49 53 51 47 47 48 49 48 49 48 47 46 45 44 45 46 49 50 50 49 48 49 50 48 48 49 48 48 49 50 48 46 45 45 44 45 46
48 46 44 43 41 40 42 43 41 40 39 40 42 42 40 39 38 39 40 38 36 38 44 47 46 45 42 41 43 44 45 47 46 42 41 41 37 32 29 24 21 21 25 29 31 28 34 42 45 51 58 56 52 48 46 48 51 52 50 48 48 49 48 47 47 48 50 49 48 49 50 49 48 48 50 50 50 49 49 49 48 48 47 47 47 48
48 46 45 44 43 43 44 43 41 40 39 40 43 43 41 40 40 40 40 39 39 41 45 46 45 44 43 43 44 44 43 44 42 37 37 38 33 29 26 23 25 29 32 36 40 39 39 44 46 51 59 60 57 51 46 47 50 51 51 51 51 51 50 49 49 49 48 47 47 48 47 46 46 45 46 48 49 49 48 48 47 48 47 47 48 49
48 46 44 44 44 44 44 43 41 41 40 41 43 42 41 41 41 40 40 40 41 42 44 45 45 43 42 42 42 42 40 39 37 32 33 33 28 26 26 25 28 33 36 39 43 42 40 41 42 46 54 58 58 55 49 47 48 49 50 50 52 52 49 48 48 49 48 47 47 46 44 44 44 41 41 43 45 46 46 45 45 46 46 47 47 47
47 46 45 45 45 46 45 44 43 43 41 41 42 42 41 41 41 41 41 41 42 42 43 46 46 43 41 40 39 38 35 33 32 28 27 26 24 24 25 26 30 35 40 40 42 43 42 42 40 41 47 51 54 54 49 45 45 47 48 48 50 51 49 48 49 51 50 48 48 46 44 44 44 42 41 40 41 42 43 43 44 45 45 45 45 45
48 48 49 47 46 47 47 45 44 44 42 41 42 42 41 41 42 42 42 42 43 42 43 47 46 41 41 39 35 33 30 28 28 25 24 24 23 23 24 27 29 34 41 43 43 43 44 43 39 37 41 45 50 51 46 40 40 45 47 47 46 46 47 49 51 53 53 51 50 48 46 46 46 46 45 44 43 43 43 44 44 44 45 45 45 46
50 50 51 50 47 47 48 47 46 45 44 42 41 41 42 43 43 43 43 43 42 42 44 47 45 40 39 36 30 28 26 25 25 24 24 25 25 25 26 27 28 33 39 43 45 46 46 41 35 33 36 41 47 49 43 38 39 44 46 46 46 45 45 46 46 49 51 52 51 50 48 48 48 48 48 47 47 47 47 47 46 47 47 46 45 44
51 51 52 50 48 48 49 49 47 46 46 44 41 42 44 45 44 44 44 43 43 42 44 47 44 38 35 30 26 25 25 25 25 24 23 25 28 28 28 28 29 32 37 41 45 47 45 38 33 32 33 38 43 44 40 37 37 41 43 42 42 43 44 44 44 45 47 49 51 51 50 49 48 48 48 48 48 49 49 49 49 48 46 45 44 44
50 50 51 50 48 48 49 49 48 46 46 45 43 43 45 45 45 44 43 43 43 42 44 45 41 33 28 27 26 24 22 21 22 23 23 24 28 31 32 31 31 33 36 39 41 42 40 36 34 33 31 33 35 36 37 37 35 35 36 35 36 39 41 43 44 46 49 50 51 51 49 48 47 46 47 48 48 48 49 49 49 48 46 46 47 48
50 50 50 50 49 48 48 48 47 46 46 46 45 45 44 44 44 44 44 44 43 42 42 43 38 28 23 26 26 24 21 20 20 22 25 24 27 33 34 33 34 35 36 37 37 37 37 37 36 34 32 33 35 36 37 38 35 33 34 35 37 40 40 42 44 47 50 52 53 52 49 47 46 44 44 46 48 49 48 49 50 51 52 51 49 49
50 50 51 50 49 46 46 46 46 46 48 47 46 45 44 45 44 44 44 43 43 42 41 41 34 23 21 25 26 24 22 21 20 23 27 26 28 33 34 34 35 37 37 36 36 36 37 38 37 34 35 37 40 42 41 39 36 33 34 37 39 39 39 40 41 43 48 52 52 52 49 46 44 43 43 46 48 50 50 49 50 51 51 50 47 45
51 50 52 51 49 47 47 47 48 50 50 48 47 46 46 46 44 43 43 42 42 42 40 38 31 21 21 24 25 25 24 22 20 22 28 29 30 33 35 35 36 38 38 37 36 36 39 40 37 35 37 38 38 40 38 35 33 31 29 30 34 37 35 36 37 37 42 48 49 50 50 47 44 44 44 47 49 50 51 52 51 50 48 46 43 42
53 53 55 54 51 50 50 50 50 50 49 47 46 46 45 44 43 42 42 41 41 41 38 35 29 21 22 26 28 28 29 28 24 23 26 30 33 35 36 36 37 39 39 39 38 38 39 40 37 37 39 38 37 37 35 32 31 28 26 26 31 35 36 36 37 35 35 38 42 47 51 50 48 47 47 49 51 51 51 53 53 53 51 49 47 46
55 54 54 52 49 49 49 49 47 47 47 45 45 45 44 43 43 42 41 40 40 39 35 31 27 22 24 32 34 33 33 34 32 28 27 32 36 37 38 38 38 38 39 40 40 39 40 40 39 40 41 40 39 38 35 33 31 28 29 30 31 32 32 34 39 38 34 31 31 37 47 51 49 49 50 52 53 54 54 55 56 56 56 55 54 54
54 51 49 48 47 47 47 47 45 46 47 46 44 43 43 43 43 42 40 39 38 34 29 27 26 23 27 34 36 36 36 36 36 33 31 35 38 39 40 40 38 38 40 42 42 41 41 41 41 43 44 42 41 40 38 36 35 34 33 33 33 32 29 29 32 35 36 34 31 32 41 48 48 48 50 52 53 55 57 58 58 58 58 56 54 53
52 49 47 48 48 47 47 45 45 48 48 44 42 41 42 42 42 42 40 38 37 30 25 26 26 25 28 33 36 37 37 37 37 36 35 38 40 41 42 42 41 40 40 42 43 43 43 43 43 43 45 44 42 42 41 39 39 38 35 31 30 31 31 31 30 30 34 40 38 36 39 44 45 47 48 49 50 51 53 56 58 59 59 58 54 51
54 51 50 50 49 48 47 46 47 49 46 42 41 42 42 43 42 42 40 38 36 30 26 26 26 28 30 32 36 38 38 37 38 38 38 41 43 44 44 45 44 43 42 43 44 44 45 46 45 44 45 45 43 42 43 43 43 40 36 33 31 31 33 35 34 32 33 38 39 38 40 42 45 47 46 44 45 46 48 51 53 54 56 57 56 54
59 57 55 53 51 49 49 48 49 49 45 43 43 42 42 42 42 42 40 38 35 29 25 25 27 30 32 32 36 39 39 39 40 39 39 41 45 46 46 47 47 46 45 45 45 45 47 48 47 46 46 47 46 45 45 47 47 44 41 40 39 37 37 38 36 33 31 30 32 35 39 41 43 47 47 43 41 42 43 46 47 48 50 52 52 51
62 61 59 56 52 51 50 49 49 48 45 44 44 44 43 42 42 42 40 37 33 28 26 26 28 31 33 33 35 40 43 43 42 40 40 42 45 48 48 48 48 47 47 48 48 48 49 50 50 49 48 48 49 50 49 49 50 50 48 47 46 45 43 40 38 35 31 28 30 35 41 43 44 45 46 45 43 42 43 45 45 46 47 49 48 47
61 59 59 57 54 52 51 49 49 48 46 45 46 45 44 44 43 42 39 34 30 29 29 29 31 33 34 33 34 39 45 46 44 42 41 42 44 47 49 50 50 49 49 49 50 51 52 53 53 52 52 52 51 52 53 53 53 53 52 51 51 50 49 46 45 44 40 35 34 37 41 45 48 48 47 46 46 45 46 47 46 45 47 48 48 46
60 59 58 58 55 52 50 50 49 48 47 46 47 47 46 45 44 42 38 31 29 31 30 30 34 36 36 33 33 38 44 46 45 44 43 44 45 47 51 52 52 51 50 50 51 53 54 55 56 56 57 57 55 55 56 57 56 56 55 54 54 53 51 48 46 45 42 37 35 37 41 44 49 52 49 47 47 48 47 47 46 45 47 48 48 48
60 60 60 60 57 53 52 51 49 47 46 47 49 48 46 45 44 42 37 31 29 31 30 31 35 38 37 34 32 34 38 42 44 44 44 45 46 48 51 53 53 53 52 52 52 54 55 56 58 60 61 61 60 59 59 60 60 59 57 56 55 53 48 43 41 39 37 35 36 37 39 41 46 50 48 46 48 49 48 48 48 48 48 48 48 48
59 62 63 62 59 55 54 53 51 48 47 49 50 48 47 46 45 43 39 34 31 33 32 32 36 38 37 35 34 32 32 35 38 40 42 45 47 49 52 54 55 54 54 54 54 54 56 57 59 61 64 65 65 64 64 63 63 62 60 58 56 53 47 41 39 38 37 38 40 39 38 39 43 47 47 45 45 48 48 48 49 49 48 47 47 47
58 61 63 63 60 57 56 55 52 49 48 49 49 48 47 46 45 43 41 38 34 35 36 35 37 40 39 37 36 36 35 35 36 38 40 42 45 48 51 54 55 55 54 55 56 56 56 57 58 60 63 66 66 66 66 66 65 64 62 59 57 54 47 42 42 43 43 43 44 43 43 42 43 45 47 45 44 46 46 46 48 49 49 48 47 46
57 60 62 61 60 58 57 55 52 49 48 49 49 49 49 48 45 44 43 40 37 38 40 39 39 42 43 41 40 40 40 39 40 41 41 41 43 46 49 51 54 55 55 55 56 57 57 58 58 59 60 63 65 65 64 64 65 65 62 60 58 55 49 46 47 48 49 48 46 45 47 47 47 48 48 48 47 47 46 47 48 50 51 51 49 47
55 57 57 57 57 56 56 55 53 50 49 50 51 51 51 49 47 45 44 43 40 40 43 44 43 44 45 44 42 41 41 40 40 40 41 42 44 46 47 49 50 51 53 55 56 56 58 59 59 59 59 60 62 62 62 62 63 64 62 59 58 56 52 50 52 52 51 51 47 45 48 50 50 50 51 51 51 49 49 50 50 51 51 51 51 50
52 52 51 52 52 53 53 54 53 51 51 51 52 52 52 50 48 47 46 46 44 43 44 47 47 47 47 45 44 43 43 43 43 43 43 44 45 46 47 48 48 48 49 52 55 56 57 58 58 59 59 60 60 60 59 59 61 62 60 57 56 56 53 53 55 55 54 56 53 47 47 50 51 51 51 51 51 50 49 50 51 52 52 51 52 52
51 50 49 49 50 51 52 54 54 53 52 52 52 52 52 51 50 50 49 49 47 45 45 48 50 51 51 49 47 46 46 46 47 48 49 48 47 47 47 47 48 48 48 50 53 54 56 56 56 57 58 59 59 59 58 58 59 60 59 57 56 56 55 56 58 58 59 63 62 55 50 51 52 53 52 51 50 50 50 50 51 52 53 53 54 54
52 52 51 50 51 52 53 54 55 54 54 53 53 53 53 52 52 51 51 50 48 46 46 48 50 53 55 54 52 50 49 49 50 51 52 51 51 50 50 49 48 48 50 50 50 51 52 52 53 54 55 55 56 57 57 57 57 58 58 57 57 58 57 59 62 63 63 66 67 63 58 56 55 55 54 54 52 51 51 52 52 52 53 54 55 57
53 54 53 53 53 53 54 55 55 55 55 55 56 56 55 55 54 53 52 51 49 48 49 50 50 52 55 56 56 55 53 53 52 52 52 52 53 53 53 52 50 48 49 50 51 50 49 48 49 50 52 52 53 54 54 55 56 57 57 57 59 60 59 61 66 68 66 65 67 67 66 63 60 57 56 55 53 52 52 53 54 54 54 55 56 58
53 54 54 54 54 54 54 55 55 55 56 56 57 58 57 57 56 55 54 53 51 51 53 53 52 52 53 55 56 56 57 57 57 56 54 54 54 54 54 55 54 52 50 49 50 51 50 48 47 47 48 49 49 51 52 54 55 56 57 58 59 61 61 63 68 72 72 68 66 67 68 67 64 61 58 56 56 56 56 55 56 56 56 56 57 57
54 55 55 54 54 54 54 55 55 56 57 58 59 60 59 58 57 57 57 56 54 54 56 56 55 54 54 54 54 55 55 56 56 56 56 56 55 55 55 55 56 57 55 52 50 50 50 49 48 48 47 46 46 48 51 53 54 56 58 59 60 61 63 65 68 74 77 75 70 68 69 69 67 65 62 60 60 61 61 60 60 60 60 60 59 59
58 57 57 56 56 56 56 56 57 58 60 62 62 62 62 61 60 60 59 58 57 56 57 58 58 57 56 55 54 53 53 52 52 52 52 53 54 55 55 55 56 58 58 57 55 53 51 50 49 49 48 47 46 47 49 51 53 56 58 60 61 62 63 66 69 73 77 80 77 73 71 70 69 67 65 63 61 61 62 63 63 64 65 65 64 63
60 60 60 60 61 61 61 60 61 63 64 65 65 65 64 64 63 62 61 59 58 57 57 58 59 58 58 57 56 54 53 51 49 48 49 51 52 53 54 55 56 57 59 59 59 58 57 55 52 50 49 48 48 48 49 50 52 55 59 61 62 63 64 67 70 73 76 80 81 80 77 75 73 70 68 67 64 63 63 64 65 67 68 68 68 67
62 62 62 64 65 64 64 64 65 65 66 66 67 67 66 65 63 62 61 59 58 57 57 58 57 57 57 57 55 55 54 52 50 48 48 50 50 51 52 54 54 55 57 58 59 59 59 58 55 52 51 50 50 50 50 51 52 55 59 61 63 64 66 68 70 73 76 78 80 81 81 80 79 77 74 72 70 68 67 67 68 70 71 73 73 73
62 61 61 63 64 64 64 64 65 66 66 67 67 67 66 64 62 61 60 58 56 56 56 56 56 54 54 53 53 53 53 52 50 48 48 49 49 48 50 52 53 54 54 56 57 58 58 57 56 54 53 52 51 51 51 52 52 54 58 61 64 65 67 70 71 73 75 77 79 80 81 82 82 82 81 79 76 73 71 69 69 71 73 75 76 76
57 56 56 58 60 60 61 61 62 63 64 65 65 65 64 62 60 59 57 55 54 53 53 53 52 51 50 50 51 52 52 50 48 47 47 48 49 49 48 50 52 53 54 54 56 57 58 57 56 55 54 53 52 52 52 53 53 55 57 61 64 67 69 71 73 75 76 77 78 80 81 82 83 84 84 84 83 80 77 74 72 73 73 75 77 77
53 53 53 54 56 56 56 57 57 58 60 61 61 61 61 60 58 56 54 53 51 49 49 49 49 48 48 48 48 50 51 50 48 47 47 47 48 49 49 50 51 52 53 54 56 57 58 58 58 57 56 55 54 53 53 54 55 55 57 60 64 67 70 73 75 77 78 78 79 80 81 83 84 85 85 86 86 85 83 81 79 77 77 77 78 78
49 50 51 52 53 54 55 55 55 56 57 58 58 58 58 58 57 54 52 49 47 46 45 46 46 46 47 47 48 49 50 51 51 50 50 50 50 50 51 51 52 53 54 54 56 57 58 59 59 59 58 58 57 56 56 56 56 57 58 61 64 68 72 75 77 79 80 80 80 81 82 83 84 85 86 87 87 88 87 86 85 84 83 82 82 82
42 44 46 47 49 51 52 54 54 55 56 57 57 57 57 56 55 53 51 48 46 44 43 43 44 45 46 47 48 49 50 52 53 53 54 54 54 54 54 54 54 55 56 56 57 58 59 60 61 61 61 60 59 59 59 59 59 59 60 62 64 68 72 76 79 81 81 82 83 84 84 84 85 86 87 87 88 88 88 88 88 88 88 87 86 86
39 40 41 43 45 46 48 50 52 53 54 55 56 56 55 54 54 52 51 49 47 46 45 44 44 44 45 46 48 49 51 52 54 56 57 57 58 58 58 58 58 58 59 59 59 60 60 61 62 63 63 63 62 62 62 62 61 62 62 63 65 68 72 76 81 83 84 84 85 86 87 87 87 88 88 88 89 89 89 90 90 90 90 90 89 89
Wind_Direction
263 267 267 264 261 261 261 262 262 261 259 256 255 255 256 258 259 261 261 259 258 257 257 258 261 265 267 265 264 266 265 263 260 258 257 257 260 261 261 261 259 258 256 252 248 233 221 222 227 233 237 241 251 259 263 276 291 289 280 277 274 269 269 271 269 262 260 263 263 260 251 245 243 239 234 229 230 239 241 243 250 252 249 251 254 253
264 266 264 261 261 262 263 263 263 261 258 256 256 256 255 255 258 262 263 261 259 259 257 257 260 264 267 267 266 266 266 264 262 260 259 258 259 260 259 260 259 258 258 254 249 241 228 226 232 238 237 241 252 260 268 278 283 265 245 253 264 265 261 263 265 259 252 250 254 260 255 248 245 242 235 227 229 238 239 243 250 252 250 249 252 254
263 263 260 260 262 264 264 264 263 261 259 258 257 255 255 256 258 260 261 261 261 261 260 259 260 262 264 266 267 266 265 265 263 260 259 259 260 261 259 257 258 257 256 255 251 245 237 231 232 237 238 240 248 259 267 268 259 235 223 232 250 254 249 250 255 255 250 245 247 256 258 254 247 242 235 228 229 236 237 241 246 248 252 257 261 262
261 260 260 262 265 266 265 264 263 261 260 259 257 256 257 258 259 259 260 260 260 261 261 260 258 260 263 266 268 269 268 267 266 262 258 258 260 262 261 258 257 256 254 253 251 247 242 236 233 234 236 238 244 250 249 242 236 226 217 220 232 238 238 239 243 246 244 241 243 246 253 261 256 244 236 232 234 236 236 237 241 245 252 261 267 268
260 260 262 263 265 265 264 263 263 262 260 258 258 259 259 259 259 259 261 262 261 261 262 260 257 259 263 266 269 272 272 272 272 269 263 260 259 261 263 261 257 255 254 252 249 245 242 239 234 231 232 233 234 230 222 220 222 218 213 215 222 229 231 233 236 239 238 237 240 240 242 256 260 248 238 236 236 235 233 235 240 244 250 258 267 273
260 261 261 262 263 264 264 264 263 262 261 259 259 260 260 261 262 263 264 265 266 266 264 263 262 263 266 269 270 271 272 273 275 275 272 266 261 261 263 263 261 257 255 252 248 244 241 238 233 228 227 225 221 217 214 214 214 213 214 215 218 225 228 230 232 235 238 238 238 238 238 243 249 247 238 233 233 234 234 237 243 247 250 255 263 273
259 260 260 261 263 264 265 265 263 263 263 262 261 261 261 263 264 266 268 270 271 270 268 268 268 267 269 271 271 272 272 272 272 274 275 271 265 261 262 264 264 262 257 253 250 245 241 236 228 222 219 215 213 215 217 216 212 212 216 216 218 224 228 230 233 237 241 239 236 237 237 236 238 240 236 232 233 236 240 245 250 251 249 252 259 268
257 259 259 260 261 263 265 265 263 264 265 265 263 262 263 264 266 268 272 273 272 272 274 275 272 269 268 270 271 272 273 273 273 273 273 273 269 263 261 261 262 263 260 254 250 248 244 235 223 217 215 212 213 217 219 218 215 215 218 218 220 225 227 229 232 236 239 239 238 237 237 237 236 237 236 234 234 239 245 252 257 255 250 251 257 264
257 259 259 259 260 262 264 264 265 265 265 264 263 264 266 267 270 272 273 273 273 276 280 279 275 272 270 271 272 273 273 273 273 272 272 272 271 266 259 254 253 255 257 256 257 255 249 238 224 217 216 216 217 219 219 217 216 217 220 220 223 228 229 229 230 234 238 239 239 239 239 239 238 240 241 238 236 240 247 254 259 260 257 254 256 262
257 258 258 259 260 261 260 262 264 264 262 263 265 267 268 269 271 272 272 273 276 280 281 278 277 277 277 277 277 276 276 275 274 273 271 270 269 265 258 248 246 248 250 253 263 268 261 243 226 218 216 215 217 219 217 214 215 219 221 220 223 228 230 230 231 234 238 239 240 241 241 241 241 242 244 244 242 243 248 253 258 263 264 261 259 262
255 257 258 258 258 256 256 259 262 263 263 265 267 267 268 269 270 271 273 276 279 280 278 277 279 282 283 283 281 279 278 277 275 273 270 267 265 263 256 247 242 238 229 221 223 253 267 255 232 218 214 214 217 219 213 210 214 218 219 219 222 226 230 231 232 235 239 240 241 242 242 242 243 245 247 250 249 248 251 254 257 262 266 266 264 265
253 255 256 256 255 253 255 259 262 264 265 266 266 266 267 269 271 272 274 277 279 277 276 277 281 284 286 287 284 281 280 277 274 271 268 265 261 257 251 240 226 217 216 209 202 215 241 248 237 220 215 215 218 220 214 209 215 217 217 220 223 226 229 231 233 235 239 240 241 243 243 242 246 249 252 254 254 254 255 257 259 261 264 266 267 268
252 254 255 256 256 255 257 261 263 264 264 264 264 266 268 269 270 272 275 277 277 276 278 280 283 285 287 288 286 284 281 276 273 270 265 262 258 252 243 228 211 206 208 205 201 207 221 232 233 223 217 218 219 221 216 212 217 219 218 221 224 227 228 231 234 236 238 242 242 243 243 243 246 251 253 256 257 257 258 259 260 261 262 264 266 269
254 255 256 256 255 255 257 259 260 262 262 264 266 268 269 270 271 272 274 276 277 279 282 283 284 285 287 288 287 284 279 274 271 265 259 258 253 245 235 219 206 202 203 205 207 213 220 225 228 222 217 218 220 220 218 216 219 221 220 223 226 228 227 230 235 238 240 243 244 245 244 241 243 247 252 255 257 257 258 259 259 260 261 262 265 268
253 253 253 252 252 254 255 257 258 261 264 266 267 269 271 272 273 273 273 276 278 281 284 285 285 286 288 288 285 281 276 270 265 256 249 247 238 232 224 209 203 200 200 205 210 216 223 225 225 220 215 215 215 215 215 216 221 222 222 225 227 228 229 230 236 241 243 244 246 247 245 242 241 244 248 251 254 256 257 257 257 258 259 261 265 269
250 250 250 250 250 253 256 257 259 262 264 266 268 271 273 272 272 273 274 276 279 283 284 285 286 287 288 287 281 273 269 263 258 249 238 228 215 212 208 200 200 199 197 202 210 216 221 222 220 216 214 211 209 209 208 210 219 223 223 226 228 229 230 232 236 242 244 246 247 248 247 245 243 244 247 251 254 255 256 256 256 256 258 261 267 272
248 248 249 251 251 253 256 257 259 262 264 266 269 271 271 270 271 274 275 277 280 283 284 284 285 286 287 284 272 260 256 251 248 242 229 214 201 198 198 195 194 195 196 199 207 213 216 216 214 212 211 208 205 206 206 207 216 221 223 227 232 233 233 235 239 244 246 247 247 248 248 248 247 247 249 252 254 256 257 259 259 260 261 263 267 271
247 248 250 252 252 253 255 257 259 261 263 266 267 267 268 270 272 274 275 278 281 282 283 283 284 287 286 275 257 247 245 242 240 237 225 211 200 194 192 192 192 193 196 199 204 210 213 212 208 204 203 203 204 207 209 211 216 220 222 228 234 238 239 241 245 249 251 251 250 249 249 249 250 250 251 252 254 256 259 261 261 262 263 263 266 269
247 249 250 251 252 252 254 256 259 261 263 265 265 265 268 270 272 273 275 278 280 281 282 283 286 288 277 258 244 238 236 234 235 231 221 209 200 194 191 193 195 197 199 200 203 207 208 205 198 195 196 198 203 208 212 214 217 219 221 226 231 237 241 245 248 251 253 254 253 251 250 249 250 251 253 253 254 256 259 260 260 261 262 264 266 267
247 248 250 250 251 252 254 257 259 260 261 262 264 266 267 268 270 272 275 277 279 282 283 283 286 283 264 245 235 229 225 225 226 221 213 205 197 194 194 195 197 199 200 199 198 199 199 197 195 195 195 196 200 204 208 210 213 217 221 221 225 232 238 242 244 245 246 248 250 250 251 252 252 253 254 254 254 256 258 261 261 261 262 263 265 265
247 248 250 251 252 254 256 258 259 259 260 262 264 265 265 266 268 271 274 278 281 283 283 283 283 272 248 235 224 217 218 218 214 209 207 204 198 197 198 198 197 197 197 196 194 195 197 196 196 195 193 196 203 206 205 206 210 216 220 222 226 234 243 248 248 245 241 240 244 248 251 253 254 256 256 256 256 256 258 261 263 262 260 261 263 265
250 250 251 253 254 256 257 258 258 259 260 262 264 264 264 266 268 270 274 279 282 282 283 283 277 256 234 227 219 215 217 214 208 204 204 203 202 202 203 201 197 196 197 196 195 198 199 196 195 194 192 197 205 206 204 204 206 211 216 223 232 237 243 251 254 254 250 244 244 248 250 251 252 253 255 258 259 259 258 259 260 261 260 261 264 265
249 250 253 254 256 257 256 256 257 259 261 262 262 262 263 265 268 272 277 282 283 283 284 281 270 247 226 218 215 217 218 215 211 209 209 207 206 207 207 205 201 200 200 198 198 200 199 197 196 195 194 198 203 201 200 200 201 205 209 219 233 237 240 245 247 253 258 253 250 251 251 249 249 251 253 256 259 259 258 257 257 259 260 262 266 266
250 251 253 255 255 255 255 255 257 259 260 259 259 262 265 268 271 276 280 285 286 284 280 271 259 239 217 211 212 214 214 212 210 210 211 210 209 209 209 208 207 205 202 200 199 200 199 199 201 198 196 199 201 200 201 202 202 206 208 213 226 234 238 244 246 248 253 253 248 245 245 245 247 250 252 254 256 256 256 257 258 259 261 263 266 267
252 252 252 252 252 251 253 255 256 258 258 258 262 265 268 271 273 276 280 284 286 283 270 258 251 235 211 206 209 209 208 208 207 206 207 208 209 210 209 210 212 210 206 203 203 203 201 201 203 201 199 200 200 200 205 207 205 206 206 207 216 223 226 235 243 247 247 246 239 234 239 242 243 247 251 253 254 255 255 256 257 259 262 264 266 265
252 252 251 251 252 253 254 256 256 257 259 261 264 265 266 268 270 273 277 281 284 277 255 242 242 231 213 205 208 209 208 207 205 204 205 206 208 211 210 211 214 214 211 208 207 207 204 202 203 202 200 201 201 203 207 207 206 206 205 206 213 218 221 227 235 240 242 243 241 237 241 243 241 245 252 253 252 253 254 255 256 257 260 262 263 263
247 250 251 252 254 255 256 256 255 256 258 261 262 262 264 265 268 273 276 281 284 272 246 233 232 228 219 210 211 214 212 209 207 206 205 205 207 212 214 214 216 217 215 212 210 208 205 203 205 205 202 203 205 206 208 209 208 208 209 211 217 221 224 230 234 237 241 243 243 241 243 244 239 242 251 253 250 250 252 254 255 256 258 260 262 264
245 247 250 253 254 255 255 253 252 254 258 260 260 260 261 263 266 272 275 281 283 269 246 237 233 229 225 218 215 216 213 210 209 209 208 207 209 213 217 217 218 219 217 215 212 209 206 205 208 209 208 208 209 208 209 209 208 210 213 217 221 225 230 234 236 238 241 242 239 237 240 242 239 240 246 247 246 248 250 252 254 256 258 260 262 264
245 246 248 250 251 251 250 249 250 253 256 258 258 257 258 261 264 269 275 282 278 263 249 243 233 226 225 221 217 215 212 210 210 211 214 214 212 214 218 220 221 222 221 218 215 211 208 207 209 212 212 213 213 211 210 210 210 212 217 220 224 228 232 235 237 242 245 241 235 234 238 241 239 240 244 246 246 247 249 251 254 256 257 260 261 263
243 244 245 246 247 247 248 248 250 253 255 256 258 257 258 261 264 268 277 280 266 252 250 245 231 222 222 221 218 215 213 211 211 213 219 221 218 216 218 222 224 225 224 222 219 215 212 211 212 215 215 216 217 216 215 214 214 216 220 223 226 230 233 236 241 247 248 242 237 238 241 242 241 242 246 247 246 247 250 254 256 255 255 257 259 260
241 241 242 243 243 244 245 247 249 252 254 255 257 258 259 261 264 268 274 272 253 245 248 241 228 222 223 222 219 218 218 216 215 217 221 224 222 219 219 223 225 225 225 225 222 219 217 215 216 217 218 218 219 219 219 218 219 221 224 226 229 233 236 240 243 246 246 239 234 236 240 242 241 241 243 245 246 246 250 255 257 256 256 256 257 259
239 238 239 239 240 240 242 244 246 249 252 253 254 256 257 259 262 266 270 265 248 240 244 240 228 224 227 229 224 221 222 223 223 225 226 227 225 221 220 222 225 225 226 226 226 223 221 220 220 220 220 220 221 221 222 222 223 225 227 228 231 234 237 241 242 240 236 228 223 226 233 237 237 237 237 242 247 248 248 252 256 259 259 259 259 260
237 237 238 239 239 239 241 243 244 247 250 252 253 255 256 257 262 266 268 266 250 237 238 239 231 225 228 233 232 228 228 230 232 231 230 228 227 224 221 222 225 226 227 228 228 227 225 224 224 223 222 223 223 224 226 227 227 228 229 231 233 235 238 241 238 231 223 218 217 220 225 230 234 235 235 238 246 250 250 251 255 257 258 259 260 260
234 236 238 239 240 240 241 243 244 247 249 251 253 254 256 259 263 265 267 268 257 239 233 234 229 225 226 230 233 233 233 236 238 239 236 232 230 228 225 225 227 228 229 231 231 230 229 228 227 226 225 225 227 228 230 231 232 231 232 233 235 236 237 237 231 224 217 215 217 219 221 224 228 230 232 235 241 247 249 251 254 255 256 257 257 257
232 235 237 239 240 241 243 245 247 248 250 251 252 254 257 260 263 264 266 268 261 246 237 233 228 224 225 228 233 234 234 235 237 241 242 240 235 232 230 229 229 229 231 234 234 233 233 233 232 230 229 229 230 232 233 235 236 235 234 235 236 236 235 229 224 221 217 214 217 221 222 223 225 227 230 234 239 243 246 250 253 254 255 255 254 253
232 234 237 239 241 242 244 247 248 248 249 250 252 254 258 260 261 262 263 265 263 254 244 239 234 228 226 228 232 235 236 237 238 241 244 245 242 237 233 231 231 231 233 235 236 236 236 236 236 235 235 234 234 235 236 238 239 238 237 237 236 235 232 226 223 222 218 214 214 218 220 222 224 228 231 235 238 242 245 249 250 251 252 252 251 250
233 234 236 238 240 241 243 245 247 248 248 249 251 253 255 257 258 259 261 263 264 258 249 243 241 237 233 231 232 235 238 240 242 243 245 247 246 242 238 234 232 233 236 236 235 236 238 238 238 239 239 239 238 238 239 239 240 240 239 237 234 231 227 222 220 220 218 214 211 213 217 219 222 225 229 232 236 239 243 247 249 249 249 248 248 248
234 235 236 237 238 240 241 243 245 246 246 247 248 249 251 253 255 257 260 263 265 260 251 245 243 242 241 239 237 237 238 241 243 245 246 246 247 245 243 239 234 234 236 237 235 235 237 238 240 241 242 242 242 242 241 241 241 240 239 236 232 228 224 220 218 217 217 216 213 212 215 218 219 222 225 229 233 237 241 245 248 250 250 249 249 249
235 237 237 237 239 240 241 242 243 244 244 245 245 246 248 251 254 257 260 263 265 260 252 246 244 244 244 244 243 242 242 242 244 245 246 246 247 247 246 245 241 237 236 237 236 235 235 236 239 241 242 243 244 244 243 242 242 240 238 234 230 227 223 220 216 215 217 219 217 215 217 220 221 223 226 230 234 237 240 243 246 249 252 253 253 253
233 235 236 237 238 239 240 241 242 243 244 245 246 247 249 251 254 257 259 262 263 259 252 247 245 245 245 245 246 247 247 247 248 249 250 250 250 249 248 248 247 244 240 238 238 238 237 236 237 238 239 240 242 243 242 242 241 239 236 231 228 226 224 221 217 215 216 220 220 219 220 222 223 224 228 231 234 236 238 241 243 247 250 252 254 255
232 234 235 236 236 238 239 241 242 244 245 246 248 249 251 253 255 257 259 260 261 258 253 249 247 246 246 246 247 248 249 251 252 253 254 255 254 252 250 248 248 247 246 243 240 240 239 238 238 238 237 237 239 241 241 240 240 238 234 230 227 225 224 222 219 217 217 219 221 221 222 223 223 225 227 231 234 235 236 239 243 246 249 251 252 254
232 234 235 236 238 239 240 242 244 245 246 248 250 251 253 255 256 257 259 260 260 258 254 251 249 248 248 248 248 249 251 252 253 253 254 255 255 254 252 250 248 248 248 247 245 242 240 239 240 240 238 237 238 240 240 239 238 237 234 230 227 226 224 222 221 219 219 220 221 222 223 225 225 225 227 231 235 237 239 240 243 246 247 248 249 252
233 234 236 237 238 240 241 242 244 245 247 249 251 252 254 255 256 258 259 260 260 259 255 252 250 249 250 250 251 252 253 254 254 254 254 254 255 254 253 252 250 248 248 248 248 246 244 242 242 242 241 240 240 240 240 238 237 236 234 231 228 227 225 224 222 221 221 222 222 223 224 226 226 227 228 230 234 238 241 243 245 247 248 249 250 251
234 235 237 238 239 240 241 242 244 245 248 250 252 253 255 256 257 258 260 260 260 257 254 252 251 251 251 252 252 252 254 256 257 257 257 256 255 254 254 253 252 250 249 248 248 248 247 246 244 243 243 242 242 242 240 238 237 236 234 232 229 228 227 225 224 223 223 223 224 225 226 227 228 228 229 230 233 237 240 243 245 247 248 249 250 250
237 237 237 239 240 240 241 243 245 246 249 251 253 254 255 257 258 259 259 259 258 255 253 252 252 252 252 252 252 252 252 253 255 257 257 257 256 254 253 253 253 251 249 248 248 248 248 247 246 244 244 243 242 243 241 238 236 235 234 233 231 228 227 226 225 225 225 225 225 226 227 228 229 230 230 231 233 236 240 243 246 248 250 251 252 252
239 239 239 240 242 242 243 244 246 248 249 251 253 255 256 257 258 258 258 258 256 254 254 254 254 253 253 252 251 251 251 251 252 252 252 254 255 254 252 251 251 251 250 248 248 248 248 247 246 245 244 242 241 241 241 239 237 235 234 233 232 230 228 227 226 226 226 226 227 227 229 230 231 231 231 232 233 235 238 241 245 249 251 253 254 255
239 240 240 240 242 243 243 244 245 247 249 251 253 255 256 257 257 257 256 256 255 255 255 255 255 254 253 251 250 250 251 251 251 250 248 249 252 254 254 252 250 250 249 248 247 247 247 246 245 245 244 242 240 239 240 240 238 236 234 233 233 231 229 228 228 227 228 228 228 228 229 230 232 233 233 233 234 235 236 239 242 246 249 252 254 256
239 239 240 240 241 242 242 242 242 244 246 248 250 252 254 255 256 256 256 256 257 256 255 255 255 254 253 252 251 251 252 252 252 252 250 249 250 251 253 254 253 251 250 248 247 247 247 246 245 244 243 242 240 238 238 239 239 237 234 233 232 231 230 229 229 229 229 229 229 229 230 231 232 233 234 235 236 236 237 238 240 243 246 249 251 253
238 238 238 239 240 241 242 242 242 242 243 245 247 249 251 253 256 257 258 259 258 257 256 255 255 254 254 253 253 252 252 253 254 254 254 253 252 251 251 252 253 253 252 251 249 247 247 246 245 243 242 241 240 238 237 237 238 237 235 233 232 231 230 229 229 230 231 231 231 231 231 231 232 233 235 236 237 238 239 240 241 242 244 246 249 251
236 237 236 237 238 240 241 242 242 242 243 244 246 248 250 253 255 258 260 261 262 261 260 258 256 256 255 255 255 254 254 255 255 256 256 255 255 254 253 252 252 252 252 252 251 249 247 246 246 244 242 240 240 239 237 236 236 236 235 234 232 231 230 230 229 230 232 233 233 233 234 234 234 234 235 237 238 240 241 242 243 244 246 247 249 251
231 233 234 235 236 238 240 241 242 243 244 245 247 249 252 254 256 258 260 263 264 265 265 264 263 261 259 258 258 258 258 258 258 258 259 258 258 257 255 254 253 252 251 251 250 250 249 247 246 245 244 242 240 239 238 237 236 235 235 235 233 232 231 230 230 230 232 233 234 235 235 236 236 236 237 238 239 241 242 243 245 246 247 249 250 252
Height
10632 10634 10634 10633 10632 10634 10636 10638 10637 10637 10639 10640 10640 10642 10643 10642 10639 10638 10644 10652 10654 10656 10660 10660 10656 10654 10652 10654 10656 10658 10662 10667 10670 10672 10674 10674 10674 10676 10680 10682 10687 10691 10694 10700 10706 10710 10714 10713 10712 10714 10715 10718 10721 10728 10734 10739 10740 10738 10730 10724 10722 10724 10722 10719 10720 10722 10720 10715 10715 10717 10718 10720 10722 10724 10728 10732 10737 10740 10741 10741 10741 10742 10742 10742 10740 10740
10627 10628 10626 10626 10627 10630 10632 10632 10632 10631 10633 10634 10636 10638 10637 10635 10634 10634 10638 10644 10648 10651 10654 10656 10656 10653 10647 10646 10652 10654 10655 10656 10661 10666 10668 10668 10669 10672 10675 10676 10680 10684 10686 10691 10698 10702 10705 10706 10705 10706 10710 10715 10720 10728 10734 10736 10738 10734 10727 10722 10720 10722 10722 10718 10715 10714 10712 10710 10712 10714 10714 10716 10718 10721 10725 10729 10734 10736 10738 10738 10739 10740 10740 10739 10738 10738
10621 10620 10618 10620 10624 10626 10627 10628 10626 10626 10627 10630 10631 10630 10629 10629 10630 10630 10630 10636 10643 10645 10648 10652 10654 10650 10643 10641 10644 10648 10650 10648 10652 10659 10661 10662 10664 10665 10667 10670 10674 10676 10678 10682 10687 10692 10695 10696 10698 10700 10706 10714 10721 10729 10732 10730 10728 10724 10718 10719 10720 10718 10717 10714 10709 10706 10705 10706 10710 10712 10712 10714 10716 10718 10722 10726 10730 10733 10734 10735 10736 10736 10736 10736 10736 10736
10613 10612 10614 10617 10620 10621 10622 10622 10620 10621 10623 10624 10625 10624 10624 10625 10626 10624 10624 10630 10638 10640 10643 10647 10648 10644 10640 10638 10638 10640 10642 10642 10642 10648 10654 10657 10658 10657 10658 10664 10668 10670 10672 10674 10678 10682 10684 10686 10690 10696 10704 10712 10719 10724 10722 10716 10710 10708 10710 10714 10712 10708 10706 10706 10704 10701 10700 10704 10707 10710 10712 10712 10714 10716 10719 10723 10726 10729 10730 10732 10732 10734 10734 10734 10734 10734
10605 10606 10611 10614 10616 10616 10617 10616 10616 10617 10618 10620 10620 10619 10620 10620 10620 10619 10620 10625 10632 10636 10638 10640 10642 10641 10636 10636 10636 10635 10635 10635 10633 10636 10644 10650 10652 10650 10650 10655 10660 10662 10665 10668 10670 10673 10674 10678 10684 10693 10698 10702 10705 10706 10701 10695 10692 10696 10700 10700 10698 10698 10698 10698 10696 10695 10698 10702 10705 10708 10711 10712 10714 10715 10717 10720 10722 10724 10726 10727 10728 10730 10730 10731 10731 10732
10599 10603 10607 10608 10610 10612 10612 10612 10612 10612 10613 10615 10616 10614 10615 10615 10615 10616 10616 10620 10627 10630 10632 10633 10636 10636 10632 10632 10632 10631 10630 10630 10628 10626 10630 10638 10644 10644 10643 10646 10651 10654 10658 10661 10663 10665 10667 10672 10680 10686 10686 10686 10688 10688 10686 10683 10684 10687 10686 10686 10688 10692 10692 10690 10690 10693 10698 10702 10704 10706 10710 10712 10712 10714 10715 10716 10718 10719 10721 10722 10724 10726 10728 10728 10728 10729
10595 10598 10602 10604 10605 10606 10607 10608 10608 10608 10609 10610 10610 10610 10610 10611 10612 10612 10612 10616 10621 10622 10624 10626 10630 10630 10629 10627 10626 10625 10626 10626 10625 10622 10620 10624 10632 10638 10638 10640 10643 10646 10650 10654 10656 10658 10662 10670 10675 10676 10674 10676 10678 10680 10681 10682 10683 10683 10682 10683 10686 10687 10688 10689 10692 10695 10698 10699 10701 10704 10706 10708 10710 10712 10713 10714 10715 10716 10717 10719 10720 10722 10724 10724 10725 10726
10590 10593 10596 10598 10600 10602 10602 10602 10603 10604 10605 10606 10605 10605 10606 10607 10608 10609 10610 10611 10613 10614 10617 10618 10620 10623 10624 10622 10620 10620 10620 10618 10618 10618 10614 10614 10622 10630 10636 10637 10637 10639 10643 10647 10650 10654 10660 10665 10666 10666 10668 10671 10673 10674 10678 10680 10682 10682 10683 10685 10686 10686 10686 10688 10692 10694 10694 10696 10698 10700 10702 10704 10707 10708 10710 10712 10712 10712 10714 10715 10716 10718 10720 10720 10722 10722
10584 10588 10591 10593 10596 10598 10597 10596 10598 10600 10602 10600 10600 10601 10603 10604 10604 10606 10606 10606 10607 10611 10612 10609 10607 10612 10617 10617 10615 10614 10614 10613 10612 10611 10610 10610 10614 10622 10629 10632 10631 10634 10638 10643 10648 10652 10656 10658 10658 10660 10663 10666 10668 10670 10672 10674 10678 10680 10682 10684 10684 10684 10684 10686 10689 10690 10690 10692 10694 10696 10698 10700 10702 10704 10706 10707 10708 10709 10710 10711 10712 10714 10716 10716 10718 10718
10580 10582 10585 10588 10592 10593 10592 10591 10594 10596 10596 10595 10596 10598 10600 10600 10601 10602 10601 10600 10604 10608 10606 10600 10598 10602 10610 10611 10610 10608 10607 10606 10605 10604 10605 10605 10608 10614 10620 10624 10626 10630 10637 10640 10644 10648 10649 10650 10651 10652 10656 10659 10660 10662 10665 10670 10674 10676 10677 10679 10679 10679 10680 10682 10685 10685 10686 10687 10688 10690 10692 10694 10696 10699 10700 10702 10704 10704 10706 10707 10708 10710 10712 10713 10714 10714
10574 10576 10580 10584 10586 10588 10586 10586 10589 10591 10592 10591 10592 10594 10595 10596 10598 10598 10597 10598 10602 10604 10599 10593 10592 10596 10602 10604 10603 10602 10600 10598 10596 10598 10598 10599 10602 10608 10613 10618 10623 10628 10631 10631 10636 10644 10646 10643 10643 10644 10646 10650 10652 10654 10658 10665 10669 10670 10672 10674 10674 10674 10674 10676 10679 10680 10680 10681 10682 10684 10686 10690 10692 10695 10696 10698 10699 10700 10702 10704 10705 10706 10708 10708 10710 10710
10568 10572 10575 10577 10580 10582 10580 10582 10584 10586 10588 10588 10586 10588 10590 10592 10594 10593 10593 10594 10598 10597 10592 10588 10590 10592 10594 10596 10596 10595 10593 10589 10588 10591 10592 10592 10596 10602 10607 10614 10618 10620 10620 10619 10621 10630 10634 10632 10632 10636 10638 10642 10644 10648 10654 10660 10662 10664 10667 10668 10668 10668 10668 10670 10672 10674 10674 10675 10677 10679 10682 10686 10688 10690 10692 10693 10694 10696 10698 10700 10702 10703 10704 10705 10706 10706
10563 10568 10570 10572 10574 10576 10576 10578 10580 10582 10584 10584 10582 10583 10586 10587 10588 10589 10588 10590 10592 10590 10586 10585 10586 10588 10588 10590 10589 10588 10584 10581 10582 10586 10586 10586 10590 10596 10601 10608 10610 10611 10612 10612 10610 10612 10616 10618 10622 10628 10632 10635 10638 10643 10650 10654 10657 10660 10663 10664 10664 10664 10664 10666 10668 10669 10670 10671 10673 10675 10678 10681 10684 10686 10687 10688 10690 10692 10694 10696 10696 10698 10700 10701 10702 10703
10558 10564 10566 10567 10568 10569 10571 10573 10574 10576 10578 10578 10578 10578 10581 10582 10583 10584 10584 10585 10586 10584 10582 10580 10581 10582 10583 10584 10583 10580 10578 10576 10578 10582 10582 10582 10586 10590 10594 10600 10602 10604 10605 10606 10607 10608 10609 10611 10615 10622 10626 10630 10636 10640 10646 10652 10654 10656 10659 10660 10660 10661 10664 10666 10666 10667 10668 10670 10670 10672 10674 10676 10679 10682 10683 10684 10686 10688 10689 10690 10692 10694 10696 10697 10698 10700
10554 10558 10560 10562 10562 10562 10565 10568 10569 10570 10573 10574 10573 10574 10576 10576 10576 10578 10580 10580 10580 10580 10578 10574 10574 10577 10578 10579 10577 10574 10572 10572 10572 10576 10576 10578 10582 10584 10588 10592 10595 10598 10600 10601 10602 10604 10606 10608 10612 10618 10622 10626 10632 10636 10642 10648 10650 10652 10655 10656 10656 10660 10663 10665 10665 10665 10666 10668 10669 10670 10672 10673 10676 10678 10680 10681 10682 10684 10684 10686 10688 10690 10692 10693 10694 10695
10548 10551 10552 10555 10558 10558 10558 10561 10564 10566 10568 10570 10569 10569 10571 10570 10570 10572 10574 10575 10575 10575 10573 10568 10569 10573 10573 10573 10572 10570 10568 10568 10568 10570 10572 10573 10577 10580 10583 10587 10590 10592 10596 10598 10598 10600 10602 10605 10610 10614 10618 10623 10628 10630 10634 10641 10644 10646 10649 10652 10653 10656 10660 10661 10662 10662 10663 10665 10666 10668 10669 10670 10672 10674 10676 10677 10678 10680 10680 10682 10684 10685 10686 10688 10690 10690
10542 10544 10544 10548 10553 10554 10553 10555 10558 10560 10562 10564 10566 10565 10564 10563 10564 10566 10567 10568 10570 10570 10567 10562 10564 10568 10568 10568 10568 10566 10564 10564 10563 10564 10566 10569 10572 10576 10578 10582 10585 10588 10591 10594 10595 10596 10598 10602 10606 10610 10614 10620 10624 10628 10631 10634 10636 10638 10642 10646 10648 10651 10654 10656 10657 10658 10658 10660 10662 10664 10666 10667 10668 10670 10672 10673 10674 10675 10676 10678 10679 10680 10682 10684 10684 10685
10536 10539 10540 10543 10548 10549 10548 10549 10552 10554 10554 10558 10560 10560 10556 10557 10559 10560 10561 10562 10563 10564 10560 10556 10560 10564 10564 10562 10562 10560 10559 10560 10560 10562 10564 10566 10570 10572 10576 10580 10582 10584 10586 10589 10591 10592 10594 10599 10604 10607 10610 10616 10621 10626 10631 10633 10633 10635 10638 10642 10644 10646 10648 10650 10652 10654 10654 10655 10656 10659 10660 10662 10664 10666 10668 10669 10670 10670 10672 10672 10674 10675 10677 10678 10680 10680
10532 10534 10535 10538 10542 10544 10544 10544 10548 10549 10549 10551 10552 10552 10552 10552 10552 10554 10555 10556 10556 10558 10556 10552 10555 10560 10558 10556 10555 10556 10556 10556 10558 10560 10561 10564 10566 10570 10573 10576 10578 10580 10582 10584 10587 10589 10592 10596 10600 10604 10608 10612 10617 10622 10627 10630 10631 10634 10638 10640 10642 10642 10644 10646 10648 10648 10650 10650 10650 10651 10654 10656 10660 10662 10664 10664 10666 10667 10668 10668 10669 10670 10672 10674 10674 10676
10528 10528 10530 10533 10535 10538 10539 10540 10542 10544 10542 10544 10544 10546 10546 10546 10547 10548 10549 10550 10550 10552 10550 10547 10550 10555 10553 10550 10550 10552 10552 10554 10556 10557 10558 10560 10562 10566 10569 10572 10574 10576 10578 10581 10584 10586 10589 10592 10596 10600 10604 10608 10610 10613 10618 10622 10626 10630 10632 10635 10636 10636 10636 10636 10638 10640 10640 10640 10641 10644 10648 10651 10655 10658 10658 10660 10661 10663 10664 10664 10666 10666 10667 10668 10670 10670
10522 10524 10524 10526 10530 10534 10536 10536 10536 10536 10535 10536 10538 10540 10540 10540 10542 10542 10543 10545 10545 10546 10544 10542 10546 10550 10548 10546 10546 10548 10548 10550 10552 10553 10555 10558 10560 10562 10566 10568 10570 10572 10574 10578 10581 10584 10585 10587 10591 10595 10598 10601 10603 10606 10612 10616 10620 10623 10624 10626 10626 10626 10626 10626 10628 10630 10631 10632 10636 10640 10644 10648 10650 10652 10653 10654 10656 10658 10659 10660 10660 10661 10662 10663 10664 10666
10518 10518 10518 10520 10525 10528 10530 10529 10529 10528 10529 10532 10532 10532 10533 10534 10536 10538 10539 10540 10540 10540 10538 10538 10541 10545 10546 10544 10544 10544 10544 10546 10548 10550 10552 10554 10558 10560 10562 10564 10566 10568 10572 10575 10579 10582 10583 10585 10588 10590 10593 10596 10600 10604 10608 10612 10614 10616 10618 10620 10619 10619 10620 10620 10623 10626 10628 10632 10636 10639 10641 10644 10646 10646 10648 10649 10650 10652 10654 10654 10655 10656 10656 10658 10659 10660
10511 10513 10512 10516 10520 10522 10522 10522 10522 10522 10524 10526 10526 10525 10526 10528 10531 10534 10536 10536 10535 10534 10533 10534 10536 10540 10542 10540 10540 10540 10541 10542 10544 10547 10550 10552 10554 10556 10558 10561 10562 10565 10568 10572 10576 10579 10582 10584 10586 10587 10590 10592 10596 10602 10604 10607 10610 10611 10612 10613 10612 10613 10616 10617 10620 10625 10629 10634 10640 10640 10638 10638 10640 10642 10642 10644 10645 10646 10648 10648 10650 10650 10652 10653 10654 10656
10504 10507 10508 10510 10514 10514 10514 10516 10518 10518 10518 10518 10518 10520 10522 10525 10528 10530 10531 10531 10529 10528 10528 10528 10531 10535 10536 10534 10534 10534 10537 10539 10540 10542 10544 10548 10550 10553 10556 10558 10560 10562 10566 10569 10572 10576 10578 10581 10582 10584 10586 10589 10594 10598 10602 10604 10607 10608 10608 10608 10608 10610 10613 10615 10618 10624 10630 10636 10638 10635 10631 10631 10634 10636 10638 10638 10640 10641 10642 10642 10644 10646 10647 10648 10649 10650
10496 10500 10502 10502 10506 10507 10507 10510 10512 10512 10510 10512 10516 10518 10520 10522 10523 10524 10526 10524 10523 10522 10523 10524 10526 10529 10530 10529 10529 10530 10533 10535 10536 10538 10539 10542 10545 10548 10552 10554 10556 10559 10562 10565 10568 10572 10574 10577 10579 10581 10583 10586 10590 10594 10598 10600 10602 10604 10604 10604 10604 10606 10607 10610 10617 10624 10630 10632 10631 10628 10625 10626 10630 10632 10632 10634 10635 10636 10636 10636 10638 10640 10642 10642 10644 10644
10489 10494 10495 10496 10499 10501 10502 10504 10506 10504 10505 10510 10514 10514 10515 10516 10516 10518 10520 10520 10518 10518 10518 10518 10520 10522 10524 10526 10526 10527 10529 10531 10532 10534 10536 10538 10540 10544 10547 10550 10552 10555 10558 10561 10564 10568 10570 10572 10574 10578 10580 10582 10586 10589 10592 10596 10597 10598 10600 10599 10598 10600 10604 10609 10617 10623 10626 10626 10626 10626 10624 10625 10628 10629 10628 10628 10629 10630 10630 10631 10633 10635 10636 10636 10637 10638
10484 10487 10488 10490 10494 10496 10496 10500 10500 10498 10501 10506 10508 10508 10510 10510 10511 10512 10514 10514 10514 10514 10514 10514 10515 10516 10519 10522 10522 10522 10525 10527 10529 10531 10533 10535 10536 10539 10542 10545 10548 10551 10554 10558 10560 10564 10566 10568 10570 10574 10576 10578 10582 10584 10588 10590 10592 10594 10596 10596 10596 10598 10604 10610 10616 10620 10621 10624 10626 10626 10624 10623 10626 10626 10624 10622 10622 10624 10626 10626 10627 10628 10630 10630 10630 10632
10479 10482 10482 10485 10488 10490 10490 10492 10493 10494 10497 10500 10500 10502 10504 10506 10506 10507 10508 10510 10510 10510 10510 10510 10512 10512 10514 10516 10517 10518 10521 10522 10525 10527 10530 10532 10534 10535 10538 10540 10544 10547 10550 10554 10556 10560 10562 10564 10566 10569 10572 10574 10576 10580 10583 10586 10588 10590 10591 10592 10594 10597 10601 10606 10612 10614 10616 10620 10624 10622 10620 10620 10622 10624 10620 10616 10616 10619 10620 10622 10622 10622 10624 10624 10626 10628
10472 10475 10477 10480 10482 10482 10484 10486 10487 10490 10492 10494 10494 10497 10500 10501 10502 10502 10504 10505 10505 10506 10506 10506 10507 10508 10510 10512 10513 10514 10516 10518 10520 10523 10526 10528 10530 10532 10534 10536 10539 10542 10546 10550 10552 10555 10558 10560 10562 10564 10567 10569 10572 10575 10578 10580 10582 10584 10586 10588 10591 10594 10599 10604 10607 10610 10612 10617 10618 10617 10616 10616 10618 10620 10616 10612 10612 10614 10615 10616 10616 10618 10618 10620 10622 10623
10465 10468 10470 10472 10475 10476 10478 10481 10483 10486 10488 10488 10488 10492 10494 10496 10496 10498 10500 10501 10501 10501 10501 10502 10503 10504 10505 10507 10509 10510 10512 10514 10516 10519 10522 10524 10526 10528 10530 10532 10534 10538 10542 10545 10548 10550 10554 10556 10558 10560 10562 10564 10566 10570 10572 10575 10578 10580 10582 10584 10588 10592 10596 10600 10604 10606 10609 10612 10613 10612 10612 10612 10614 10614 10612 10609 10608 10608 10609 10610 10611 10612 10614 10615 10617 10618
10458 10461 10462 10465 10469 10472 10473 10475 10478 10480 10482 10484 10484 10486 10490 10490 10492 10494 10496 10497 10497 10496 10498 10498 10500 10500 10502 10503 10504 10506 10508 10510 10513 10516 10518 10520 10522 10524 10526 10527 10530 10532 10536 10540 10542 10545 10548 10551 10553 10554 10556 10558 10562 10564 10567 10570 10572 10574 10576 10580 10584 10588 10593 10597 10600 10602 10604 10606 10608 10608 10608 10608 10608 10608 10607 10604 10602 10604 10604 10604 10604 10606 10608 10610 10611 10610
10450 10453 10454 10456 10462 10466 10466 10468 10472 10474 10476 10478 10478 10481 10484 10485 10486 10488 10491 10493 10493 10493 10494 10494 10495 10496 10498 10499 10501 10502 10504 10508 10510 10512 10514 10516 10518 10520 10521 10522 10524 10527 10530 10533 10536 10540 10543 10546 10548 10548 10550 10553 10556 10559 10562 10564 10566 10569 10572 10576 10580 10585 10590 10594 10596 10597 10598 10601 10603 10604 10604 10604 10602 10602 10602 10600 10596 10598 10600 10599 10598 10601 10602 10604 10605 10605
10442 10444 10446 10449 10454 10458 10460 10461 10465 10468 10470 10472 10473 10476 10478 10480 10482 10483 10485 10488 10490 10490 10490 10490 10491 10493 10494 10496 10498 10500 10501 10503 10505 10507 10509 10511 10514 10516 10516 10518 10520 10522 10525 10528 10530 10534 10537 10540 10542 10543 10545 10548 10550 10553 10556 10558 10561 10564 10568 10572 10576 10580 10586 10588 10590 10591 10593 10594 10596 10598 10599 10598 10597 10596 10597 10596 10592 10590 10593 10594 10594 10596 10597 10598 10599 10600
10434 10436 10438 10442 10447 10452 10453 10455 10460 10464 10466 10468 10468 10470 10472 10474 10477 10478 10480 10482 10486 10487 10488 10487 10487 10490 10491 10492 10494 10496 10498 10499 10500 10502 10504 10506 10508 10511 10513 10514 10516 10518 10520 10522 10524 10528 10530 10533 10534 10537 10540 10542 10544 10546 10549 10552 10555 10558 10563 10567 10571 10576 10580 10582 10582 10583 10586 10587 10588 10590 10592 10592 10592 10591 10592 10592 10588 10586 10587 10589 10589 10590 10592 10592 10593 10594
10428 10430 10432 10436 10442 10446 10448 10450 10455 10460 10462 10464 10464 10465 10466 10469 10472 10473 10474 10476 10480 10482 10484 10484 10484 10484 10486 10488 10490 10492 10494 10495 10496 10498 10499 10501 10504 10506 10508 10510 10512 10514 10515 10516 10518 10522 10524 10526 10528 10532 10534 10536 10538 10540 10543 10546 10549 10553 10558 10562 10566 10570 10574 10573 10572 10574 10578 10582 10584 10584 10586 10586 10586 10586 10586 10586 10584 10582 10582 10583 10583 10584 10585 10587 10588 10588
10422 10424 10428 10432 10436 10440 10443 10446 10450 10454 10458 10458 10460 10460 10462 10464 10466 10468 10469 10470 10474 10476 10478 10480 10481 10481 10482 10484 10486 10488 10490 10490 10492 10494 10495 10496 10498 10500 10502 10504 10508 10510 10512 10512 10513 10516 10517 10519 10522 10526 10528 10530 10532 10536 10538 10540 10543 10547 10552 10556 10560 10564 10566 10566 10566 10569 10574 10578 10579 10579 10578 10580 10580 10580 10581 10580 10578 10578 10578 10577 10577 10578 10580 10581 10582 10582
10416 10420 10424 10428 10432 10436 10438 10440 10444 10448 10452 10454 10455 10456 10456 10458 10460 10462 10464 10466 10468 10471 10473 10475 10477 10478 10478 10479 10480 10482 10484 10486 10488 10490 10491 10492 10494 10495 10497 10500 10503 10506 10506 10506 10507 10509 10510 10513 10516 10519 10521 10524 10526 10530 10532 10534 10537 10540 10544 10549 10552 10556 10558 10560 10561 10564 10568 10570 10572 10572 10572 10573 10574 10574 10574 10574 10572 10572 10572 10571 10572 10572 10574 10574 10575 10576
10412 10416 10420 10423 10426 10430 10433 10435 10438 10444 10446 10448 10450 10450 10451 10453 10454 10456 10458 10460 10462 10466 10468 10470 10471 10472 10473 10474 10476 10476 10478 10480 10482 10484 10486 10488 10489 10490 10492 10494 10497 10500 10500 10500 10502 10503 10505 10508 10510 10512 10514 10516 10519 10522 10526 10528 10530 10534 10538 10542 10544 10548 10551 10554 10556 10558 10560 10561 10563 10565 10565 10565 10566 10567 10567 10567 10566 10567 10567 10566 10566 10566 10566 10568 10570 10570
10407 10410 10414 10418 10421 10424 10428 10430 10434 10438 10440 10442 10442 10444 10445 10447 10448 10450 10452 10455 10458 10460 10461 10464 10465 10466 10468 10468 10470 10472 10473 10475 10476 10478 10480 10482 10484 10486 10488 10489 10490 10492 10494 10495 10496 10498 10500 10502 10504 10506 10508 10510 10512 10514 10518 10520 10523 10526 10530 10534 10536 10540 10544 10546 10548 10551 10552 10552 10556 10559 10558 10558 10560 10560 10561 10560 10561 10562 10562 10562 10562 10562 10562 10562 10563 10562
10402 10406 10409 10413 10416 10419 10422 10426 10428 10432 10434 10434 10436 10437 10439 10441 10443 10445 10447 10449 10452 10453 10454 10457 10459 10460 10462 10464 10465 10467 10468 10470 10472 10473 10475 10477 10478 10480 10482 10484 10485 10486 10488 10489 10490 10492 10495 10497 10498 10500 10502 10504 10505 10507 10510 10512 10515 10518 10522 10525 10528 10532 10536 10538 10541 10543 10544 10546 10549 10552 10552 10552 10554 10556 10556 10556 10556 10556 10556 10556 10556 10556 10556 10556 10556 10554
10398 10401 10404 10408 10411 10415 10418 10420 10422 10426 10427 10428 10429 10430 10432 10435 10438 10440 10441 10444 10446 10446 10448 10450 10453 10454 10456 10458 10460 10462 10463 10464 10466 10468 10470 10471 10472 10474 10476 10478 10479 10480 10482 10483 10485 10486 10488 10490 10492 10494 10495 10497 10499 10500 10502 10504 10508 10510 10514 10517 10520 10523 10526 10530 10532 10534 10536 10538 10542 10544 10545 10546 10548 10550 10550 10550 10549 10549 10550 10550 10550 10549 10549 10548 10548 10548
10394 10398 10400 10404 10408 10411 10413 10415 10418 10419 10420 10420 10422 10424 10426 10429 10432 10433 10435 10438 10440 10440 10442 10444 10446 10448 10450 10452 10454 10456 10458 10458 10460 10462 10464 10464 10466 10468 10469 10470 10472 10474 10475 10477 10478 10480 10482 10484 10486 10487 10488 10492 10494 10494 10496 10498 10501 10503 10506 10509 10512 10514 10518 10521 10524 10526 10529 10532 10534 10536 10538 10539 10541 10542 10544 10544 10543 10543 10544 10544 10543 10542 10541 10540 10540 10540
10390 10393 10397 10400 10403 10405 10408 10410 10412 10412 10412 10412 10414 10416 10419 10422 10424 10426 10428 10432 10434 10434 10436 10438 10440 10442 10444 10446 10448 10450 10451 10452 10454 10455 10456 10458 10458 10460 10462 10463 10465 10466 10468 10470 10472 10474 10476 10478 10480 10481 10483 10486 10487 10488 10490 10492 10494 10496 10499 10502 10504 10507 10510 10512 10515 10518 10520 10523 10526 10528 10530 10532 10534 10534 10535 10536 10536 10536 10536 10536 10536 10535 10534 10532 10534 10535
10385 10389 10392 10394 10396 10398 10401 10404 10404 10404 10404 10406 10408 10410 10412 10414 10418 10420 10422 10425 10426 10428 10430 10432 10434 10436 10438 10440 10441 10443 10444 10446 10448 10448 10450 10450 10452 10452 10454 10456 10457 10459 10461 10463 10464 10466 10468 10470 10472 10475 10478 10480 10481 10482 10484 10486 10488 10490 10492 10494 10497 10500 10502 10504 10506 10510 10512 10514 10516 10520 10522 10524 10526 10526 10527 10528 10528 10528 10528 10527 10527 10527 10526 10525 10526 10528
10378 10381 10384 10386 10387 10391 10394 10396 10398 10399 10400 10400 10402 10404 10406 10408 10411 10414 10416 10418 10420 10422 10423 10425 10427 10429 10430 10432 10434 10436 10438 10440 10442 10443 10444 10444 10444 10446 10447 10448 10450 10451 10453 10455 10457 10459 10460 10463 10466 10469 10471 10472 10474 10476 10477 10478 10481 10483 10485 10487 10490 10492 10494 10496 10498 10501 10503 10506 10508 10512 10514 10516 10518 10518 10520 10520 10520 10520 10520 10520 10520 10520 10519 10518 10518 10520
10368 10372 10376 10379 10380 10384 10388 10390 10392 10394 10394 10395 10396 10397 10399 10402 10404 10407 10409 10412 10414 10415 10417 10418 10420 10422 10424 10425 10427 10429 10431 10433 10435 10436 10437 10438 10438 10439 10440 10441 10442 10444 10446 10448 10449 10451 10452 10456 10458 10461 10462 10465 10467 10468 10470 10472 10474 10476 10478 10480 10482 10485 10487 10488 10490 10492 10494 10497 10501 10504 10506 10507 10508 10510 10511 10512 10512 10512 10514 10514 10514 10513 10512 10512 10510 10512
10363 10366 10370 10373 10374 10376 10380 10384 10386 10388 10388 10389 10390 10392 10393 10395 10398 10400 10402 10404 10406 10408 10410 10412 10413 10415 10416 10418 10420 10422 10423 10426 10428 10429 10430 10431 10432 10432 10432 10434 10435 10436 10438 10440 10441 10442 10444 10448 10450 10452 10454 10457 10459 10461 10462 10464 10466 10468 10470 10473 10476 10478 10480 10482 10483 10485 10486 10489 10493 10496 10497 10498 10500 10502 10502 10504 10504 10505 10505 10506 10506 10506 10505 10504 10504 10504
10358 10361 10364 10366 10368 10370 10374 10376 10380 10382 10382 10384 10384 10386 10388 10389 10391 10393 10396 10398 10400 10402 10404 10405 10406 10408 10410 10412 10414 10415 10416 10418 10420 10422 10422 10424 10424 10425 10426 10426 10428 10428 10430 10432 10433 10434 10436 10439 10442 10444 10446 10448 10450 10452 10454 10456 10458 10460 10462 10464 10467 10470 10472 10474 10476 10477 10478 10481 10484 10486 10488 10490 10492 10492 10494 10495 10496 10497 10497 10498 10498 10498 10497 10496 10496 10497
10352 10355 10358 10360 10362 10365 10367 10370 10373 10375 10376 10378 10379 10380 10382 10384 10385 10386 10389 10392 10394 10396 10398 10399 10400 10402 10404 10405 10406 10408 10410 10411 10412 10414 10415 10416 10416 10418 10418 10420 10420 10421 10422 10424 10425 10426 10428 10430 10432 10434 10437 10439 10441 10443 10446 10447 10449 10451 10453 10455 10458 10460 10464 10466 10467 10469 10470 10473 10475 10477 10478 10480 10482 10484 10485 10486 10488 10488 10490 10490 10490 10490 10490 10489 10489 10490
10348 10350 10353 10356 10358 10360 10362 10364 10366 10369 10370 10372 10374 10376 10378 10379 10380 10382 10384 10385 10387 10389 10391 10392 10394 10396 10398 10398 10400 10402 10403 10404 10406 10406 10406 10408 10408 10410 10410 10412 10412 10414 10414 10416 10416 10418 10419 10420 10422 10425 10428 10430 10432 10434 10436 10438 10440 10442 10444 10446 10448 10451 10454 10456 10458 10460 10462 10464 10466 10468 10469 10471 10473 10475 10476 10478 10478 10480 10480 10481 10481 10481 10482 10482 10482 10482
10344 10346 10348 10351 10353 10355 10357 10359 10361 10364 10366 10367 10368 10370 10372 10374 10376 10378 10378 10380 10382 10382 10384 10386 10387 10389 10390 10392 10394 10395 10396 10397 10398 10398 10398 10399 10400 10400 10401 10402 10404 10404 10406 10406 10408 10408 10410 10411 10413 10416 10418 10420 10423 10425 10427 10429 10432 10433 10435 10437 10440 10442 10444 10446 10449 10451 10452 10454 10456 10458 10460 10462 10463 10465 10467 10468 10470 10470 10471 10471 10472 10472 10473 10474 10474 10475